owner,sensor,date,latitude,longitude,vertical_datum,wind_speed,wind_to_direction,wind_speed_of_gust,qcFlag 
DISL,ioos:station:DISL:CATA:1,2014-03-01T00:00:00Z,30.3085,-88.1395,0.0,4.87,109.9,-9999.0,'1111122,1111122,1111122' 
DISL,ioos:station:DISL:CATA:1,2014-03-01T00:30:00Z,30.3085,-88.1395,0.0,6.04,103.4,-9999.0,'1111122,1111122,1111122' 
DISL,ioos:station:DISL:CATA:1,2014-03-01T01:00:00Z,30.3085,-88.1395,0.0,6.19,111.2,-9999.0,'1111122,1111122,1111122' 
DISL,ioos:station:DISL:CATA:1,2014-03-01T01:30:00Z,30.3085,-88.1395,0.0,5.01,113.1,-9999.0,'1111122,1111122,1111122' 
DISL,ioos:station:DISL:CATA:1,2014-03-01T02:00:00Z,30.3085,-88.1395,0.0,5.08,135.1,-9999.0,'1111122,1111122,1111122' 
DISL,ioos:station:DISL:CATA:1,2014-03-01T02:30:00Z,30.3085,-88.1395,0.0,4.6,133.8,-9999.0,'1111122,1111122,1111122' 
DISL,ioos:station:DISL:CATA:1,2014-03-01T03:00:00Z,30.3085,-88.1395,0.0,5.91,135.4,-9999.0,'1111122,1111122,1111122' 
DISL,ioos:station:DISL:CATA:1,2014-03-01T03:30:00Z,30.3085,-88.1395,0.0,5.29,128.8,-9999.0,'1111122,1111122,1111122' 
DISL,ioos:station:DISL:CATA:1,2014-03-01T04:00:00Z,30.3085,-88.1395,0.0,5.11,132.1,-9999.0,'1111122,1111122,1111122' 
DISL,ioos:station:DISL:CATA:1,2014-03-01T04:30:00Z,30.3085,-88.1395,0.0,4.72,146.2,-9999.0,'1111122,1111122,1111122' 
DISL,ioos:station:DISL:CATA:1,2014-03-01T05:00:00Z,30.3085,-88.1395,0.0,7.09,139.9,-9999.0,'1111122,1111122,1111122' 
DISL,ioos:station:DISL:CATA:1,2014-03-01T05:30:00Z,30.3085,-88.1395,0.0,6.5,149.0,-9999.0,'1111122,1111122,1111122' 
DISL,ioos:station:DISL:CATA:1,2014-03-01T06:00:00Z,30.3085,-88.1395,0.0,6.27,151.2,-9999.0,'1111122,1111122,1111122' 
DISL,ioos:station:DISL:CATA:1,2014-03-01T06:30:00Z,30.3085,-88.1395,0.0,6.7,156.3,-9999.0,'1111122,1111122,1111122' 
DISL,ioos:station:DISL:CATA:1,2014-03-01T07:00:00Z,30.3085,-88.1395,0.0,7.28,158.7,-9999.0,'1111122,1111122,1111122' 
DISL,ioos:station:DISL:CATA:1,2014-03-01T07:30:00Z,30.3085,-88.1395,0.0,7.43,162.5,-9999.0,'1111122,1111122,1111122' 
DISL,ioos:station:DISL:CATA:1,2014-03-01T08:00:00Z,30.3085,-88.1395,0.0,5.85,153.0,-9999.0,'1111122,1111122,1111122' 
DISL,ioos:station:DISL:CATA:1,2014-03-01T08:30:00Z,30.3085,-88.1395,0.0,6.77,156.0,-9999.0,'1111122,1111122,1111122' 
DISL,ioos:station:DISL:CATA:1,2014-03-01T09:00:00Z,30.3085,-88.1395,0.0,6.78,154.9,-9999.0,'1111122,1111122,1111122' 
DISL,ioos:station:DISL:CATA:1,2014-03-01T09:30:00Z,30.3085,-88.1395,0.0,5.93,153.5,-9999.0,'1111122,1111122,1111122' 
DISL,ioos:station:DISL:CATA:1,2014-03-01T10:00:00Z,30.3085,-88.1395,0.0,5.78,155.2,-9999.0,'1111122,1111122,1111122' 
DISL,ioos:station:DISL:CATA:1,2014-03-01T10:30:00Z,30.3085,-88.1395,0.0,5.16,155.0,-9999.0,'1111122,1111122,1111122' 
DISL,ioos:station:DISL:CATA:1,2014-03-01T11:00:00Z,30.3085,-88.1395,0.0,3.43,146.4,-9999.0,'1111122,1111122,1111122' 
DISL,ioos:station:DISL:CATA:1,2014-03-01T11:30:00Z,30.3085,-88.1395,0.0,2.26,140.2,-9999.0,'1111122,1111122,1111122' 
DISL,ioos:station:DISL:CATA:1,2014-03-01T12:00:00Z,30.3085,-88.1395,0.0,2.09,112.5,-9999.0,'1111122,1111122,1111122' 
DISL,ioos:station:DISL:CATA:1,2014-03-01T12:30:00Z,30.3085,-88.1395,0.0,1.92,65.42,-9999.0,'1111122,1111122,1111122' 
DISL,ioos:station:DISL:CATA:1,2014-03-01T13:00:00Z,30.3085,-88.1395,0.0,2.41,65.77,-9999.0,'1111122,1111122,1111122' 
DISL,ioos:station:DISL:CATA:1,2014-03-01T13:30:00Z,30.3085,-88.1395,0.0,2.21,59.6,-9999.0,'1111122,1111122,1111122' 
DISL,ioos:station:DISL:CATA:1,2014-03-01T14:00:00Z,30.3085,-88.1395,0.0,2.08,65.47,-9999.0,'1111122,1111122,1111122' 
DISL,ioos:station:DISL:CATA:1,2014-03-01T14:30:00Z,30.3085,-88.1395,0.0,2.44,71.51,-9999.0,'1111122,1111122,1111122' 
DISL,ioos:station:DISL:CATA:1,2014-03-01T15:00:00Z,30.3085,-88.1395,0.0,2.27,98.3,-9999.0,'1111122,1111122,1111122' 
DISL,ioos:station:DISL:CATA:1,2014-03-01T15:30:00Z,30.3085,-88.1395,0.0,2.05,104.1,-9999.0,'1111122,1111122,1111122' 
DISL,ioos:station:DISL:CATA:1,2014-03-01T16:00:00Z,30.3085,-88.1395,0.0,2.99,124.1,-9999.0,'1111122,1111122,1111122' 
DISL,ioos:station:DISL:CATA:1,2014-03-01T16:30:00Z,30.3085,-88.1395,0.0,4.08,127.8,-9999.0,'1111122,1111122,1111122' 
DISL,ioos:station:DISL:CATA:1,2014-03-01T17:00:00Z,30.3085,-88.1395,0.0,4.57,128.3,-9999.0,'1111122,1111122,1111122' 
DISL,ioos:station:DISL:CATA:1,2014-03-01T17:30:00Z,30.3085,-88.1395,0.0,4.93,135.2,-9999.0,'1111122,1111122,1111122' 
DISL,ioos:station:DISL:CATA:1,2014-03-01T18:00:00Z,30.3085,-88.1395,0.0,5.13,137.6,-9999.0,'1111122,1111122,1111122' 
DISL,ioos:station:DISL:CATA:1,2014-03-01T18:30:00Z,30.3085,-88.1395,0.0,4.37,130.0,-9999.0,'1111122,1111122,1111122' 
DISL,ioos:station:DISL:CATA:1,2014-03-01T19:00:00Z,30.3085,-88.1395,0.0,4.64,134.0,-9999.0,'1111122,1111122,1111122' 
DISL,ioos:station:DISL:CATA:1,2014-03-01T19:30:00Z,30.3085,-88.1395,0.0,4.91,136.7,-9999.0,'1111122,1111122,1111122' 
DISL,ioos:station:DISL:CATA:1,2014-03-01T20:00:00Z,30.3085,-88.1395,0.0,4.79,133.9,-9999.0,'1111122,1111122,1111122' 
DISL,ioos:station:DISL:CATA:1,2014-03-01T20:30:00Z,30.3085,-88.1395,0.0,5.04,136.0,-9999.0,'1111122,1111122,1111122' 
DISL,ioos:station:DISL:CATA:1,2014-03-01T21:00:00Z,30.3085,-88.1395,0.0,5.44,136.8,-9999.0,'1111122,1111122,1111122' 
DISL,ioos:station:DISL:CATA:1,2014-03-01T21:30:00Z,30.3085,-88.1395,0.0,5.19,137.1,-9999.0,'1111122,1111122,1111122' 
DISL,ioos:station:DISL:CATA:1,2014-03-01T22:00:00Z,30.3085,-88.1395,0.0,5.51,139.2,-9999.0,'1111122,1111122,1111122' 
DISL,ioos:station:DISL:CATA:1,2014-03-01T22:30:00Z,30.3085,-88.1395,0.0,4.58,134.6,-9999.0,'1111122,1111122,1111122' 
DISL,ioos:station:DISL:CATA:1,2014-03-01T23:00:00Z,30.3085,-88.1395,0.0,4.88,144.7,-9999.0,'1111122,1111122,1111122' 
DISL,ioos:station:DISL:CATA:1,2014-03-01T23:30:00Z,30.3085,-88.1395,0.0,5.38,150.1,-9999.0,'1111122,1111122,1111122' 
DISL,ioos:station:DISL:CATA:1,2014-03-02T00:00:00Z,30.3085,-88.1395,0.0,3.92,133.4,-9999.0,'1111122,1111122,1111122' 
DISL,ioos:station:DISL:CATA:1,2014-03-02T00:30:00Z,30.3085,-88.1395,0.0,4.37,140.0,-9999.0,'1111122,1111122,1111122' 
DISL,ioos:station:DISL:CATA:1,2014-03-02T01:00:00Z,30.3085,-88.1395,0.0,3.37,144.3,-9999.0,'1111122,1111122,1111122' 
DISL,ioos:station:DISL:CATA:1,2014-03-02T01:30:00Z,30.3085,-88.1395,0.0,4.5,153.3,-9999.0,'1111122,1111122,1111122' 
DISL,ioos:station:DISL:CATA:1,2014-03-02T02:00:00Z,30.3085,-88.1395,0.0,4.64,153.4,-9999.0,'1111122,1111122,1111122' 
DISL,ioos:station:DISL:CATA:1,2014-03-02T02:30:00Z,30.3085,-88.1395,0.0,5.49,159.6,-9999.0,'1111122,1111122,1111122' 
DISL,ioos:station:DISL:CATA:1,2014-03-02T03:00:00Z,30.3085,-88.1395,0.0,5.84,159.7,-9999.0,'1111122,1111122,1111122' 
DISL,ioos:station:DISL:CATA:1,2014-03-02T03:30:00Z,30.3085,-88.1395,0.0,6.11,157.8,-9999.0,'1111122,1111122,1111122' 
DISL,ioos:station:DISL:CATA:1,2014-03-02T04:00:00Z,30.3085,-88.1395,0.0,5.97,158.0,-9999.0,'1111122,1111122,1111122' 
DISL,ioos:station:DISL:CATA:1,2014-03-02T04:30:00Z,30.3085,-88.1395,0.0,5.34,150.2,-9999.0,'1111122,1111122,1111122' 
DISL,ioos:station:DISL:CATA:1,2014-03-02T05:00:00Z,30.3085,-88.1395,0.0,5.17,148.6,-9999.0,'1111122,1111122,1111122' 
DISL,ioos:station:DISL:CATA:1,2014-03-02T05:30:00Z,30.3085,-88.1395,0.0,4.03,137.4,-9999.0,'1111122,1111122,1111122' 
DISL,ioos:station:DISL:CATA:1,2014-03-02T06:00:00Z,30.3085,-88.1395,0.0,3.05,126.6,-9999.0,'1111122,1111122,1111122' 
DISL,ioos:station:DISL:CATA:1,2014-03-02T06:30:00Z,30.3085,-88.1395,0.0,3.2,125.0,-9999.0,'1111122,1111122,1111122' 
DISL,ioos:station:DISL:CATA:1,2014-03-02T07:00:00Z,30.3085,-88.1395,0.0,4.41,139.3,-9999.0,'1111122,1111122,1111122' 
DISL,ioos:station:DISL:CATA:1,2014-03-02T07:30:00Z,30.3085,-88.1395,0.0,3.6,144.4,-9999.0,'1111122,1111122,1111122' 
DISL,ioos:station:DISL:CATA:1,2014-03-02T08:00:00Z,30.3085,-88.1395,0.0,3.35,141.2,-9999.0,'1111122,1111122,1111122' 
DISL,ioos:station:DISL:CATA:1,2014-03-02T08:30:00Z,30.3085,-88.1395,0.0,3.71,145.5,-9999.0,'1111122,1111122,1111122' 
DISL,ioos:station:DISL:CATA:1,2014-03-02T09:00:00Z,30.3085,-88.1395,0.0,3.38,133.9,-9999.0,'1111122,1111122,1111122' 
DISL,ioos:station:DISL:CATA:1,2014-03-02T09:30:00Z,30.3085,-88.1395,0.0,3.05,131.3,-9999.0,'1111122,1111122,1111122' 
DISL,ioos:station:DISL:CATA:1,2014-03-02T10:00:00Z,30.3085,-88.1395,0.0,3.62,141.7,-9999.0,'1111122,1111122,1111122' 
DISL,ioos:station:DISL:CATA:1,2014-03-02T10:30:00Z,30.3085,-88.1395,0.0,2.71,114.3,-9999.0,'1111122,1111122,1111122' 
DISL,ioos:station:DISL:CATA:1,2014-03-02T11:00:00Z,30.3085,-88.1395,0.0,2.88,120.4,-9999.0,'1111122,1111122,1111122' 
DISL,ioos:station:DISL:CATA:1,2014-03-02T11:30:00Z,30.3085,-88.1395,0.0,2.65,118.2,-9999.0,'1111122,1111122,1111122' 
DISL,ioos:station:DISL:CATA:1,2014-03-02T12:00:00Z,30.3085,-88.1395,0.0,2.47,121.7,-9999.0,'1111122,1111122,1111122' 
DISL,ioos:station:DISL:CATA:1,2014-03-02T12:30:00Z,30.3085,-88.1395,0.0,1.89,98.4,-9999.0,'1111122,1111122,1111122' 
DISL,ioos:station:DISL:CATA:1,2014-03-02T13:00:00Z,30.3085,-88.1395,0.0,2.41,105.8,-9999.0,'1111122,1111122,1111122' 
DISL,ioos:station:DISL:CATA:1,2014-03-02T13:30:00Z,30.3085,-88.1395,0.0,2.26,110.7,-9999.0,'1111122,1111122,1111122' 
DISL,ioos:station:DISL:CATA:1,2014-03-02T14:00:00Z,30.3085,-88.1395,0.0,1.82,107.6,-9999.0,'1111122,1111122,1111122' 
DISL,ioos:station:DISL:CATA:1,2014-03-02T14:30:00Z,30.3085,-88.1395,0.0,2.06,95.4,-9999.0,'1111122,1111122,1111122' 
DISL,ioos:station:DISL:CATA:1,2014-03-02T15:00:00Z,30.3085,-88.1395,0.0,2.18,106.6,-9999.0,'1111122,1111122,1111122' 
DISL,ioos:station:DISL:CATA:1,2014-03-02T15:30:00Z,30.3085,-88.1395,0.0,1.71,114.7,-9999.0,'1111122,1111122,1111122' 
DISL,ioos:station:DISL:CATA:1,2014-03-02T16:00:00Z,30.3085,-88.1395,0.0,2.24,118.7,-9999.0,'1111122,1111122,1111122' 
DISL,ioos:station:DISL:CATA:1,2014-03-02T16:30:00Z,30.3085,-88.1395,0.0,2.99,122.3,-9999.0,'1111122,1111122,1111122' 
DISL,ioos:station:DISL:CATA:1,2014-03-02T17:00:00Z,30.3085,-88.1395,0.0,2.76,122.3,-9999.0,'1111122,1111122,1111122' 
DISL,ioos:station:DISL:CATA:1,2014-03-02T17:30:00Z,30.3085,-88.1395,0.0,3.24,127.8,-9999.0,'1111122,1111122,1111122' 
DISL,ioos:station:DISL:CATA:1,2014-03-02T18:00:00Z,30.3085,-88.1395,0.0,3.26,127.2,-9999.0,'1111122,1111122,1111122' 
DISL,ioos:station:DISL:CATA:1,2014-03-02T18:30:00Z,30.3085,-88.1395,0.0,3.37,126.0,-9999.0,'1111122,1111122,1111122' 
DISL,ioos:station:DISL:CATA:1,2014-03-02T19:00:00Z,30.3085,-88.1395,0.0,3.76,137.4,-9999.0,'1111122,1111122,1111122' 
DISL,ioos:station:DISL:CATA:1,2014-03-02T19:30:00Z,30.3085,-88.1395,0.0,4.25,137.4,-9999.0,'1111122,1111122,1111122' 
DISL,ioos:station:DISL:CATA:1,2014-03-02T20:00:00Z,30.3085,-88.1395,0.0,3.95,135.5,-9999.0,'1111122,1111122,1111122' 
DISL,ioos:station:DISL:CATA:1,2014-03-02T20:30:00Z,30.3085,-88.1395,0.0,3.98,130.3,-9999.0,'1111122,1111122,1111122' 
DISL,ioos:station:DISL:CATA:1,2014-03-02T21:00:00Z,30.3085,-88.1395,0.0,4.0,128.5,-9999.0,'1111122,1111122,1111122' 
DISL,ioos:station:DISL:CATA:1,2014-03-02T21:30:00Z,30.3085,-88.1395,0.0,4.36,130.3,-9999.0,'1111122,1111122,1111122' 
DISL,ioos:station:DISL:CATA:1,2014-03-02T22:00:00Z,30.3085,-88.1395,0.0,5.48,138.7,-9999.0,'1111122,1111122,1111122' 
DISL,ioos:station:DISL:CATA:1,2014-03-02T22:30:00Z,30.3085,-88.1395,0.0,5.26,135.7,-9999.0,'1111122,1111122,1111122' 
DISL,ioos:station:DISL:CATA:1,2014-03-02T23:00:00Z,30.3085,-88.1395,0.0,5.39,134.9,-9999.0,'1111122,1111122,1111122' 
DISL,ioos:station:DISL:CATA:1,2014-03-02T23:30:00Z,30.3085,-88.1395,0.0,5.45,137.8,-9999.0,'1111122,1111122,1111122' 
DISL,ioos:station:DISL:CATA:1,2014-03-03T00:00:00Z,30.3085,-88.1395,0.0,4.56,141.1,-9999.0,'1111122,1111122,1111122' 
DISL,ioos:station:DISL:CATA:1,2014-03-03T00:30:00Z,30.3085,-88.1395,0.0,6.11,154.3,-9999.0,'1111122,1111122,1111122' 
DISL,ioos:station:DISL:CATA:1,2014-03-03T01:00:00Z,30.3085,-88.1395,0.0,5.77,151.3,-9999.0,'1111122,1111122,1111122' 
DISL,ioos:station:DISL:CATA:1,2014-03-03T01:30:00Z,30.3085,-88.1395,0.0,6.64,164.2,-9999.0,'1111122,1111122,1111122' 
DISL,ioos:station:DISL:CATA:1,2014-03-03T02:00:00Z,30.3085,-88.1395,0.0,6.34,167.2,-9999.0,'1111122,1111122,1111122' 
DISL,ioos:station:DISL:CATA:1,2014-03-03T02:30:00Z,30.3085,-88.1395,0.0,7.1,165.6,-9999.0,'1111122,1111122,1111122' 
DISL,ioos:station:DISL:CATA:1,2014-03-03T03:00:00Z,30.3085,-88.1395,0.0,7.41,166.0,-9999.0,'1111122,1111122,1111122' 
DISL,ioos:station:DISL:CATA:1,2014-03-03T03:30:00Z,30.3085,-88.1395,0.0,7.62,167.9,-9999.0,'1111122,1111122,1111122' 
DISL,ioos:station:DISL:CATA:1,2014-03-03T04:00:00Z,30.3085,-88.1395,0.0,8.16,171.6,-9999.0,'1111122,1111122,1111122' 
DISL,ioos:station:DISL:CATA:1,2014-03-03T04:30:00Z,30.3085,-88.1395,0.0,8.44,168.9,-9999.0,'1111122,1111122,1111122' 
DISL,ioos:station:DISL:CATA:1,2014-03-03T05:00:00Z,30.3085,-88.1395,0.0,8.82,170.4,-9999.0,'1111122,1111122,1111122' 
DISL,ioos:station:DISL:CATA:1,2014-03-03T05:30:00Z,30.3085,-88.1395,0.0,7.99,172.0,-9999.0,'1111122,1111122,1111122' 
DISL,ioos:station:DISL:CATA:1,2014-03-03T06:00:00Z,30.3085,-88.1395,0.0,7.23,180.2,-9999.0,'1111122,1111122,1111122' 
DISL,ioos:station:DISL:CATA:1,2014-03-03T06:30:00Z,30.3085,-88.1395,0.0,4.44,191.4,-9999.0,'1111122,1111122,1111122' 
DISL,ioos:station:DISL:CATA:1,2014-03-03T07:00:00Z,30.3085,-88.1395,0.0,4.42,179.4,-9999.0,'1111122,1111122,1111122' 
DISL,ioos:station:DISL:CATA:1,2014-03-03T07:30:00Z,30.3085,-88.1395,0.0,3.06,197.1,-9999.0,'1111122,1111122,1111122' 
DISL,ioos:station:DISL:CATA:1,2014-03-03T08:00:00Z,30.3085,-88.1395,0.0,4.33,166.7,-9999.0,'1111122,1111122,1111122' 
DISL,ioos:station:DISL:CATA:1,2014-03-03T08:30:00Z,30.3085,-88.1395,0.0,5.05,176.6,-9999.0,'1111122,1111122,1111122' 
DISL,ioos:station:DISL:CATA:1,2014-03-03T09:00:00Z,30.3085,-88.1395,0.0,4.79,187.3,-9999.0,'1111122,1111122,1111122' 
DISL,ioos:station:DISL:CATA:1,2014-03-03T09:30:00Z,30.3085,-88.1395,0.0,5.83,180.5,-9999.0,'1111122,1111122,1111122' 
DISL,ioos:station:DISL:CATA:1,2014-03-03T10:00:00Z,30.3085,-88.1395,0.0,6.61,187.7,-9999.0,'1111122,1111122,1111122' 
DISL,ioos:station:DISL:CATA:1,2014-03-03T10:30:00Z,30.3085,-88.1395,0.0,6.38,196.0,-9999.0,'1111122,1111122,1111122' 
DISL,ioos:station:DISL:CATA:1,2014-03-03T11:00:00Z,30.3085,-88.1395,0.0,7.68,196.2,-9999.0,'1111122,1111122,1111122' 
DISL,ioos:station:DISL:CATA:1,2014-03-03T11:30:00Z,30.3085,-88.1395,0.0,8.07,201.2,-9999.0,'1111122,1111122,1111122' 
DISL,ioos:station:DISL:CATA:1,2014-03-03T12:00:00Z,30.3085,-88.1395,0.0,7.78,204.2,-9999.0,'1111122,1111122,1111122' 
DISL,ioos:station:DISL:CATA:1,2014-03-03T12:30:00Z,30.3085,-88.1395,0.0,7.56,212.3,-9999.0,'1111122,1111122,1111122' 
DISL,ioos:station:DISL:CATA:1,2014-03-03T13:00:00Z,30.3085,-88.1395,0.0,7.55,230.8,-9999.0,'1111122,1111122,1111122' 
DISL,ioos:station:DISL:CATA:1,2014-03-03T13:30:00Z,30.3085,-88.1395,0.0,7.45,234.3,-9999.0,'1111122,1111122,1111122' 
DISL,ioos:station:DISL:CATA:1,2014-03-03T14:00:00Z,30.3085,-88.1395,0.0,7.75,238.1,-9999.0,'1111122,1111122,1111122' 
DISL,ioos:station:DISL:CATA:1,2014-03-03T14:30:00Z,30.3085,-88.1395,0.0,7.27,250.1,-9999.0,'1111122,1111122,1111122' 
DISL,ioos:station:DISL:CATA:1,2014-03-03T15:00:00Z,30.3085,-88.1395,0.0,10.06,307.6,-9999.0,'1111122,1111122,1111122' 
DISL,ioos:station:DISL:CATA:1,2014-03-03T15:30:00Z,30.3085,-88.1395,0.0,10.3,339.0,-9999.0,'1111122,1111122,1111122' 
DISL,ioos:station:DISL:CATA:1,2014-03-03T16:00:00Z,30.3085,-88.1395,0.0,11.55,332.9,-9999.0,'1111122,1111122,1111122' 
DISL,ioos:station:DISL:CATA:1,2014-03-03T16:30:00Z,30.3085,-88.1395,0.0,11.17,345.6,-9999.0,'1111122,1111122,1111122' 
DISL,ioos:station:DISL:CATA:1,2014-03-03T17:00:00Z,30.3085,-88.1395,0.0,9.38,346.8,-9999.0,'1111122,1111122,1111122' 
DISL,ioos:station:DISL:CATA:1,2014-03-03T17:30:00Z,30.3085,-88.1395,0.0,8.07,339.3,-9999.0,'1111122,1111122,1111122' 
DISL,ioos:station:DISL:CATA:1,2014-03-03T18:00:00Z,30.3085,-88.1395,0.0,8.67,341.7,-9999.0,'1111122,1111122,1111122' 
DISL,ioos:station:DISL:CATA:1,2014-03-03T18:30:00Z,30.3085,-88.1395,0.0,8.28,353.2,-9999.0,'1111122,1111122,1111122' 
DISL,ioos:station:DISL:CATA:1,2014-03-03T19:00:00Z,30.3085,-88.1395,0.0,8.72,340.3,-9999.0,'1111122,1111122,1111122' 
DISL,ioos:station:DISL:CATA:1,2014-03-03T19:30:00Z,30.3085,-88.1395,0.0,8.0,343.6,-9999.0,'1111122,1111122,1111122' 
DISL,ioos:station:DISL:CATA:1,2014-03-03T20:00:00Z,30.3085,-88.1395,0.0,8.09,353.2,-9999.0,'1111122,1111122,1111122' 
DISL,ioos:station:DISL:CATA:1,2014-03-03T20:30:00Z,30.3085,-88.1395,0.0,6.82,0.109,-9999.0,'1111122,1111122,1111122' 
DISL,ioos:station:DISL:CATA:1,2014-03-03T21:00:00Z,30.3085,-88.1395,0.0,6.83,359.4,-9999.0,'1111122,1111122,1111122' 
DISL,ioos:station:DISL:CATA:1,2014-03-03T21:30:00Z,30.3085,-88.1395,0.0,5.98,352.8,-9999.0,'1111122,1111122,1111122' 
DISL,ioos:station:DISL:CATA:1,2014-03-03T22:00:00Z,30.3085,-88.1395,0.0,7.02,342.3,-9999.0,'1111122,1111122,1111122' 
DISL,ioos:station:DISL:CATA:1,2014-03-03T22:30:00Z,30.3085,-88.1395,0.0,7.65,3.293,-9999.0,'1111122,1111122,1111122' 
DISL,ioos:station:DISL:CATA:1,2014-03-03T23:00:00Z,30.3085,-88.1395,0.0,6.87,4.05,-9999.0,'1111122,1111122,1111122' 
DISL,ioos:station:DISL:CATA:1,2014-03-03T23:30:00Z,30.3085,-88.1395,0.0,7.11,9.93,-9999.0,'1111122,1111122,1111122' 
DISL,ioos:station:DISL:CATA:1,2014-03-04T00:00:00Z,30.3085,-88.1395,0.0,7.42,9.04,-9999.0,'1111122,1111122,1111122' 
DISL,ioos:station:DISL:CATA:1,2014-03-04T00:30:00Z,30.3085,-88.1395,0.0,7.9,0.364,-9999.0,'1111122,1111122,1111122' 
DISL,ioos:station:DISL:CATA:1,2014-03-04T01:00:00Z,30.3085,-88.1395,0.0,7.23,9.25,-9999.0,'1111122,1111122,1111122' 
DISL,ioos:station:DISL:CATA:1,2014-03-04T01:30:00Z,30.3085,-88.1395,0.0,8.06,9.57,-9999.0,'1111122,1111122,1111122' 
DISL,ioos:station:DISL:CATA:1,2014-03-04T02:00:00Z,30.3085,-88.1395,0.0,7.46,11.48,-9999.0,'1111122,1111122,1111122' 
DISL,ioos:station:DISL:CATA:1,2014-03-04T02:30:00Z,30.3085,-88.1395,0.0,8.39,16.92,-9999.0,'1111122,1111122,1111122' 
DISL,ioos:station:DISL:CATA:1,2014-03-04T03:00:00Z,30.3085,-88.1395,0.0,8.27,1.966,-9999.0,'1111122,1111122,1111122' 
DISL,ioos:station:DISL:CATA:1,2014-03-04T03:30:00Z,30.3085,-88.1395,0.0,7.41,5.886,-9999.0,'1111122,1111122,1111122' 
DISL,ioos:station:DISL:CATA:1,2014-03-04T04:00:00Z,30.3085,-88.1395,0.0,6.28,7.697,-9999.0,'1111122,1111122,1111122' 
DISL,ioos:station:DISL:CATA:1,2014-03-04T04:30:00Z,30.3085,-88.1395,0.0,6.46,2.421,-9999.0,'1111122,1111122,1111122' 
DISL,ioos:station:DISL:CATA:1,2014-03-04T05:00:00Z,30.3085,-88.1395,0.0,6.44,0.918,-9999.0,'1111122,1111122,1111122' 
DISL,ioos:station:DISL:CATA:1,2014-03-04T05:30:00Z,30.3085,-88.1395,0.0,7.9,358.5,-9999.0,'1111122,1111122,1111122' 
DISL,ioos:station:DISL:CATA:1,2014-03-04T06:00:00Z,30.3085,-88.1395,0.0,7.27,351.8,-9999.0,'1111122,1111122,1111122' 
DISL,ioos:station:DISL:CATA:1,2014-03-04T06:30:00Z,30.3085,-88.1395,0.0,6.15,352.3,-9999.0,'1111122,1111122,1111122' 
DISL,ioos:station:DISL:CATA:1,2014-03-04T07:00:00Z,30.3085,-88.1395,0.0,5.92,356.3,-9999.0,'1111122,1111122,1111122' 
DISL,ioos:station:DISL:CATA:1,2014-03-04T07:30:00Z,30.3085,-88.1395,0.0,5.85,1.395,-9999.0,'1111122,1111122,1111122' 
DISL,ioos:station:DISL:CATA:1,2014-03-04T08:00:00Z,30.3085,-88.1395,0.0,5.24,1.03,-9999.0,'1111122,1111122,1111122' 
DISL,ioos:station:DISL:CATA:1,2014-03-04T08:30:00Z,30.3085,-88.1395,0.0,5.68,355.8,-9999.0,'1111122,1111122,1111122' 
DISL,ioos:station:DISL:CATA:1,2014-03-04T09:00:00Z,30.3085,-88.1395,0.0,5.37,353.0,-9999.0,'1111122,1111122,1111122' 
DISL,ioos:station:DISL:CATA:1,2014-03-04T09:30:00Z,30.3085,-88.1395,0.0,5.77,346.8,-9999.0,'1111122,1111122,1111122' 
DISL,ioos:station:DISL:CATA:1,2014-03-04T10:00:00Z,30.3085,-88.1395,0.0,5.7,355.9,-9999.0,'1111122,1111122,1111122' 
DISL,ioos:station:DISL:CATA:1,2014-03-04T10:30:00Z,30.3085,-88.1395,0.0,5.36,351.7,-9999.0,'1111122,1111122,1111122' 
DISL,ioos:station:DISL:CATA:1,2014-03-04T11:00:00Z,30.3085,-88.1395,0.0,5.82,352.0,-9999.0,'1111122,1111122,1111122' 
DISL,ioos:station:DISL:CATA:1,2014-03-04T11:30:00Z,30.3085,-88.1395,0.0,4.95,349.5,-9999.0,'1111122,1111122,1111122' 
DISL,ioos:station:DISL:CATA:1,2014-03-04T12:00:00Z,30.3085,-88.1395,0.0,5.09,4.912,-9999.0,'1111122,1111122,1111122' 
DISL,ioos:station:DISL:CATA:1,2014-03-04T12:30:00Z,30.3085,-88.1395,0.0,5.06,2.255,-9999.0,'1111122,1111122,1111122' 
DISL,ioos:station:DISL:CATA:1,2014-03-04T13:00:00Z,30.3085,-88.1395,0.0,4.9,350.8,-9999.0,'1111122,1111122,1111122' 
DISL,ioos:station:DISL:CATA:1,2014-03-04T13:30:00Z,30.3085,-88.1395,0.0,4.86,29.45,-9999.0,'1111122,1111122,1111122' 
DISL,ioos:station:DISL:CATA:1,2014-03-04T14:00:00Z,30.3085,-88.1395,0.0,4.6,46.65,-9999.0,'1111122,1111122,1111122' 
DISL,ioos:station:DISL:CATA:1,2014-03-04T14:30:00Z,30.3085,-88.1395,0.0,4.78,41.05,-9999.0,'1111122,1111122,1111122' 
DISL,ioos:station:DISL:CATA:1,2014-03-04T15:00:00Z,30.3085,-88.1395,0.0,4.28,27.47,-9999.0,'1111122,1111122,1111122' 
DISL,ioos:station:DISL:CATA:1,2014-03-04T15:30:00Z,30.3085,-88.1395,0.0,4.32,2.312,-9999.0,'1111122,1111122,1111122' 
DISL,ioos:station:DISL:CATA:1,2014-03-04T16:00:00Z,30.3085,-88.1395,0.0,4.28,343.4,-9999.0,'1111122,1111122,1111122' 
DISL,ioos:station:DISL:CATA:1,2014-03-04T16:30:00Z,30.3085,-88.1395,0.0,5.18,340.9,-9999.0,'1111122,1111122,1111122' 
DISL,ioos:station:DISL:CATA:1,2014-03-04T17:00:00Z,30.3085,-88.1395,0.0,5.21,350.2,-9999.0,'1111122,1111122,1111122' 
DISL,ioos:station:DISL:CATA:1,2014-03-04T17:30:00Z,30.3085,-88.1395,0.0,4.51,1.57,-9999.0,'1111122,1111122,1111122' 
DISL,ioos:station:DISL:CATA:1,2014-03-04T18:00:00Z,30.3085,-88.1395,0.0,3.06,343.8,-9999.0,'1111122,1111122,1111122' 
DISL,ioos:station:DISL:CATA:1,2014-03-04T18:30:00Z,30.3085,-88.1395,0.0,3.16,19.23,-9999.0,'1111122,1111122,1111122' 
DISL,ioos:station:DISL:CATA:1,2014-03-04T19:00:00Z,30.3085,-88.1395,0.0,3.44,2.817,-9999.0,'1111122,1111122,1111122' 
DISL,ioos:station:DISL:CATA:1,2014-03-04T19:30:00Z,30.3085,-88.1395,0.0,5.33,33.11,-9999.0,'1111122,1111122,1111122' 
DISL,ioos:station:DISL:CATA:1,2014-03-04T20:00:00Z,30.3085,-88.1395,0.0,5.7,8.34,-9999.0,'1111122,1111122,1111122' 
DISL,ioos:station:DISL:CATA:1,2014-03-04T20:30:00Z,30.3085,-88.1395,0.0,4.6,340.0,-9999.0,'1111122,1111122,1111122' 
DISL,ioos:station:DISL:CATA:1,2014-03-04T21:00:00Z,30.3085,-88.1395,0.0,3.39,9.5,-9999.0,'1111122,1111122,1111122' 
DISL,ioos:station:DISL:CATA:1,2014-03-04T21:30:00Z,30.3085,-88.1395,0.0,3.87,21.88,-9999.0,'1111122,1111122,1111122' 
DISL,ioos:station:DISL:CATA:1,2014-03-04T22:00:00Z,30.3085,-88.1395,0.0,3.32,7.609,-9999.0,'1111122,1111122,1111122' 
DISL,ioos:station:DISL:CATA:1,2014-03-04T22:30:00Z,30.3085,-88.1395,0.0,5.44,45.59,-9999.0,'1111122,1111122,1111122' 
DISL,ioos:station:DISL:CATA:1,2014-03-04T23:00:00Z,30.3085,-88.1395,0.0,5.12,47.78,-9999.0,'1111122,1111122,1111122' 
DISL,ioos:station:DISL:CATA:1,2014-03-04T23:30:00Z,30.3085,-88.1395,0.0,5.4,48.1,-9999.0,'1111122,1111122,1111122' 
DISL,ioos:station:DISL:CATA:1,2014-03-05T00:00:00Z,30.3085,-88.1395,0.0,5.31,56.91,-9999.0,'1111122,1111122,1111122' 
DISL,ioos:station:DISL:CATA:1,2014-03-05T00:30:00Z,30.3085,-88.1395,0.0,5.84,46.94,-9999.0,'1111122,1111122,1111122' 
DISL,ioos:station:DISL:CATA:1,2014-03-05T01:00:00Z,30.3085,-88.1395,0.0,5.4,44.31,-9999.0,'1111122,1111122,1111122' 
DISL,ioos:station:DISL:CATA:1,2014-03-05T01:30:00Z,30.3085,-88.1395,0.0,5.0,17.49,-9999.0,'1111122,1111122,1111122' 
DISL,ioos:station:DISL:CATA:1,2014-03-05T02:00:00Z,30.3085,-88.1395,0.0,4.66,352.8,-9999.0,'1111122,1111122,1111122' 
DISL,ioos:station:DISL:CATA:1,2014-03-05T02:30:00Z,30.3085,-88.1395,0.0,4.44,6.323,-9999.0,'1111122,1111122,1111122' 
DISL,ioos:station:DISL:CATA:1,2014-03-05T03:00:00Z,30.3085,-88.1395,0.0,4.42,3.249,-9999.0,'1111122,1111122,1111122' 
DISL,ioos:station:DISL:CATA:1,2014-03-05T03:30:00Z,30.3085,-88.1395,0.0,5.54,27.01,-9999.0,'1111122,1111122,1111122' 
DISL,ioos:station:DISL:CATA:1,2014-03-05T04:00:00Z,30.3085,-88.1395,0.0,8.46,39.37,-9999.0,'1111122,1111122,1111122' 
DISL,ioos:station:DISL:CATA:1,2014-03-05T04:30:00Z,30.3085,-88.1395,0.0,5.85,22.81,-9999.0,'1111122,1111122,1111122' 